FW3021 Weather Reports


Display with metric or nautical units.
time (UTC)temp
F
wind
direction
speed
MPH
gust
MPH
rain 1hr
in
rain 24hr
in
rain mn
in
humidity
%
barometer
mb
20260903035517 59 0 2.0 2.0 0.00 0.00 0.00 83 1013.0
20260903034517 59 0.0 2.0 0.00 0.00 0.00 83 1013.0
20260903033517 59 0.0 1.0 0.00 0.00 0.00 83 1012.9
20260903032517 60 0 2.0 3.0 0.00 0.00 0.00 83 1013.0
20260903031517 59 0 2.0 3.0 0.00 0.00 0.00 81 1013.0
20260903030517 59 293 2.0 3.0 0.00 0.00 0.00 78 1012.9
20260903025537 59 293 2.0 3.0 0.00 0.00 0.00 76 1012.9
20260903024537 60 293 2.0 3.0 0.00 0.00 0.00 75 1012.9
20260903023517 60 293 1.0 2.0 0.00 0.00 0.00 75 1012.9
20260903022516 61 0.0 2.0 0.00 0.00 0.00 75 1012.7
20260903021537 61 0.0 1.0 0.00 0.00 0.00 75 1012.8
20260903020516 61 293 1.0 2.0 0.00 0.00 0.00 76 1012.7
20260903015517 61 0.0 3.0 0.00 0.00 0.00 76 1012.6
20260903014517 61 0.0 3.0 0.00 0.00 0.00 76 1012.4
20260903013517 61 0.0 2.0 0.00 0.00 0.00 75 1013.0
20260903012536 62 0.0 0.0 0.00 0.00 0.00 73 1012.1
20260903011537 62 0.0 0.0 0.00 0.00 0.00 72 1012.2
20260903010516 63 0.0 0.0 0.00 0.00 0.00 71 1012.0
20260903005517 64 0.0 0.0 0.00 0.00 0.00 70 1012.0
20260903004517 64 0.0 0.0 0.00 0.00 0.00 70 1011.9
20260903003516 65 0.0 0.0 0.00 0.00 0.00 69 1011.8
20260903002516 66 0.0 0.0 0.00 0.00 0.00 69 1012.0
20260903001517 67 0.0 0.0 0.00 0.00 0.00 67 1012.0
20260903000516 68 0.0 0.0 0.00 0.00 0.00 66 1011.9
20260902235516 68 0.0 0.0 0.00 0.00 0.00 63 1011.8
20260902234516 69 0.0 0.0 0.00 0.00 0.00 62 1011.9
20260902233516 69 0.0 0.0 0.00 0.00 0.00 61 1011.9
20260902232516 69 0.0 0.0 0.00 0.00 0.00 60 1012.0
20260902231516 69 0.0 0.0 0.00 0.00 0.00 60 1012.0
20260902230516 70 0 2.0 5.0 0.00 0.00 0.00 58 1012.0
20260902225516 69 0 1.0 5.0 0.00 0.00 0.00 59 1011.9
20260902224516 69 0.0 0.0 0.00 0.00 0.00 60 1011.8
20260902223516 69 0.0 0.0 0.00 0.00 0.00 59 1011.8
20260902222516 69 0 3.0 4.0 0.00 0.00 0.00 58 1011.7
20260902221516 70 0 3.0 5.0 0.00 0.00 0.00 57 1011.8
20260902220516 70 0 3.0 5.0 0.00 0.00 0.00 55 1011.9
20260902215516 70 0 3.0 6.0 0.00 0.00 0.00 54 1011.8
20260902214516 70 0 3.0 6.0 0.00 0.00 0.00 56 1011.8
20260902213516 70 0 3.0 5.0 0.00 0.00 0.00 58 1011.8
20260902212516 70 0 3.0 6.0 0.00 0.00 0.00 56 1011.9
20260902211516 70 0 2.0 4.0 0.00 0.00 0.00 57 1011.8
20260902210516 71 0.0 0.0 0.00 0.00 0.00 54 1011.7
20260902205516 69 0.0 0.0 0.00 0.00 0.00 60 1011.8
20260902204516 67 0 3.0 6.0 0.00 0.00 0.00 64 1011.8
20260902203516 68 0 4.0 6.0 0.00 0.00 0.00 63 1011.8
20260902202516 68 0 3.0 5.0 0.00 0.00 0.00 62 1011.9
20260902201516 68 0 2.0 3.0 0.00 0.00 0.00 62 1011.9
20260902200516 68 0 2.0 4.0 0.00 0.00 0.00 64 1011.9
20260902195536 69 0 3.0 4.0 0.00 0.00 0.00 63 1011.9
20260902194536 67 0 3.0 5.0 0.00 0.00 0.00 64 1012.0
20260902193536 67 0 5.0 6.0 0.00 0.00 0.00 64 1012.0
20260902192516 66 0 5.0 8.0 0.00 0.00 0.00 65 1012.0
20260902191536 67 0 5.0 8.0 0.00 0.00 0.00 63 1012.1
20260902190516 68 0 7.0 11.0 0.00 0.00 0.00 62 1012.3
20260902185516 67 0 7.0 10.0 0.00 0.00 0.00 65 1012.1
20260902184516 66 0 5.0 8.0 0.00 0.00 0.00 65 1012.2
20260902183516 66 0 5.0 9.0 0.00 0.00 0.00 65 1012.4
20260902182516 66 0 4.0 6.0 0.00 0.00 0.00 67 1012.4
20260902181516 67 0 7.0 10.0 0.00 0.00 0.00 65 1012.5
20260902180516 68 0 7.0 10.0 0.00 0.00 0.00 61 1012.5
20260902175516 69 0 6.0 11.0 0.00 0.00 0.00 61 1012.6
20260902174516 68 0 4.0 9.0 0.00 0.00 0.00 59 1012.7
20260902173536 69 0 5.0 10.0 0.00 0.00 0.00 60 1012.7
20260902172516 67 0 4.0 9.0 0.00 0.00 0.00 62 1012.7
20260902171536 68 0 4.0 8.0 0.00 0.00 0.00 61 1012.6
20260902170515 68 0 4.0 6.0 0.00 0.00 0.00 60 1012.4
20260902165516 67 0 5.0 8.0 0.00 0.00 0.00 62 1012.4
20260902164516 67 0 4.0 8.0 0.00 0.00 0.00 63 1012.4
20260902163516 67 0 5.0 8.0 0.00 0.00 0.00 62 1012.4
20260902162515 67 0 5.0 9.0 0.00 0.00 0.00 63 1012.5
20260902161515 67 0 5.0 8.0 0.00 0.00 0.00 65 1012.4
20260902160515 67 0 5.0 8.0 0.00 0.00 0.00 64 1012.5
20260902155515 66 0 5.0 6.0 0.00 0.00 0.00 65 1012.6
20260902154516 67 0 3.0 5.0 0.00 0.00 0.00 66 1012.6
20260902153515 68 0 2.0 4.0 0.00 0.00 0.00 64 1012.6
20260902152516 68 0 2.0 6.0 0.00 0.00 0.00 62 1012.5
20260902151515 69 0 1.0 3.0 0.00 0.00 0.00 62 1012.6
20260902150515 68 0 2.0 4.0 0.00 0.00 0.00 63 1012.6
20260902145515 67 0 3.0 6.0 0.00 0.00 0.00 64 1012.6
20260902144537 67 180 2.0 4.0 0.00 0.00 0.00 65 1012.6
20260902143518 67 0 2.0 5.0 0.00 0.00 0.00 63 1012.6
20260902142518 68 0 1.0 3.0 0.00 0.00 0.00 63 1012.8
20260902141517 68 0 1.0 2.0 0.00 0.00 0.00 63 1012.7
20260902140517 68 0.0 4.0 0.00 0.00 0.00 63 1012.8
20260902135517 68 45 1.0 4.0 0.00 0.00 0.00 63 1012.7
20260902134517 67 0 1.0 5.0 0.00 0.00 0.00 64 1012.8
20260902133517 66 0 1.0 3.0 0.00 0.00 0.00 64 1012.8
20260902132517 65 0.0 2.0 0.00 0.00 0.00 65 1012.8
20260902131517 65 0.0 0.0 0.00 0.00 0.00 66 1012.8
20260902130517 65 0.0 2.0 0.00 0.00 0.00 66 1012.7
20260902125517 64 0.0 4.0 0.00 0.00 0.00 67 1012.6
20260902124517 64 0.0 2.0 0.00 0.00 0.00 66 1012.7
20260902123517 64 180 2.0 5.0 0.00 0.00 0.00 66 1012.5
20260902122517 63 158 1.0 4.0 0.00 0.00 0.00 66 1012.4
20260902121517 63 0.0 4.0 0.00 0.00 0.00 66 1012.3
20260902120517 63 0 1.0 4.0 0.00 0.00 0.00 65 1012.2
20260902115517 63 0 3.0 9.0 0.00 0.00 0.00 65 1012.0
20260902114517 64 0 3.0 9.0 0.00 0.00 0.00 65 1012.0
20260902113517 64 0 3.0 10.0 0.00 0.00 0.00 64 1012.1
20260902112517 64 0 3.0 9.0 0.00 0.00 0.00 64 1012.0
20260902111517 64 45 3.0 6.0 0.00 0.00 0.00 64 1011.9
20260902110517 64 0 3.0 8.0 0.00 0.00 0.00 64 1012.0
20260902105517 64 0 3.0 8.0 0.00 0.00 0.00 64 1012.1
20260902104657 64 0 3.0 9.0 0.00 0.00 0.00 64 1012.1
20260902103517 64 0 3.0 8.0 0.00 0.00 0.00 64 1012.3
20260902102517 64 0 2.0 5.0 0.00 0.00 0.00 64 1012.4
20260902101517 64 0 2.0 5.0 0.00 0.00 0.00 64 1012.5
20260902100517 65 0 2.0 8.0 0.00 0.00 0.00 64 1012.6
20260902095517 65 0 4.0 7.0 0.00 0.00 0.00 64 1012.5
20260902094517 65 0 4.0 8.0 0.00 0.00 0.00 64 1012.4
20260902093517 64 0 3.0 6.0 0.00 0.00 0.00 64 1012.3
20260902092517 64 0 2.0 7.0 0.00 0.00 0.00 65 1012.2
20260902091517 65 0 2.0 6.0 0.00 0.00 0.00 65 1012.1
20260902090517 64 0 3.0 7.0 0.00 0.00 0.00 65 1012.1
20260902085517 64 0 2.0 9.0 0.00 0.00 0.00 66 1012.1
20260902084517 64 0 3.0 6.0 0.00 0.00 0.00 67 1012.0
20260902083517 64 0 2.0 5.0 0.00 0.00 0.00 66 1012.0
20260902082517 64 0 2.0 5.0 0.00 0.00 0.00 65 1012.2
20260902081517 64 0 2.0 5.0 0.00 0.00 0.00 65 1012.1
20260902080517 64 0 2.0 4.0 0.00 0.00 0.00 65 1012.0
20260902075537 64 0 2.0 6.0 0.00 0.00 0.00 65 1012.0
20260902074517 64 0 2.0 5.0 0.00 0.00 0.00 66 1011.8
20260902073516 64 0 1.0 3.0 0.00 0.00 0.00 66 1011.9
20260902072517 64 0 2.0 3.0 0.00 0.00 0.00 65 1011.8
20260902071516 64 0 2.0 6.0 0.00 0.00 0.00 66 1011.6
20260902070516 63 0 2.0 8.0 0.00 0.00 0.00 67 1011.8
20260902065516 63 0 2.0 6.0 0.00 0.00 0.00 68 1011.8
20260902064537 63 0 2.0 4.0 0.00 0.00 0.00 68 1012.0
20260902063517 63 315 1.0 4.0 0.00 0.00 0.00 67 1011.9
20260902062516 64 0 1.0 3.0 0.00 0.00 0.00 67 1011.9
20260902061537 64 0 2.0 3.0 0.00 0.00 0.00 66 1011.9
20260902060517 64 315 1.0 3.0 0.00 0.00 0.00 66 1011.9
20260902055517 64 0 2.0 6.0 0.00 0.00 0.00 67 1012.0
20260902054517 64 0 1.0 3.0 0.00 0.00 0.00 67 1011.9
20260902053516 64 0 2.0 4.0 0.00 0.00 0.00 66 1012.1
20260902052516 64 0 2.0 5.0 0.00 0.00 0.00 65 1012.3
20260902051557 65 315 2.0 6.0 0.00 0.00 0.00 65 1012.5
20260902050516 65 0 2.0 6.0 0.00 0.00 0.00 65 1012.4
20260902045516 64 0 2.0 4.0 0.00 0.00 0.00 65 1012.3
20260902044517 65 0 3.0 5.0 0.00 0.00 0.00 65 1012.2
20260902043516 65 0 2.0 5.0 0.00 0.00 0.00 65 1012.1
20260902042516 65 0 2.0 4.0 0.00 0.00 0.00 64 1011.9
20260902041516 65 0 2.0 5.0 0.00 0.00 0.00 64 1011.7
20260902040516 66 0 2.0 5.0 0.00 0.00 0.00 63 1011.8